Probability
0 0 0 0 0 0 0 0 0 0 0 0 0 0 0 0 0 0 0 0 0 0 0 0 0 0 0 0 0 0 0 0 0 0 0 0 0 0 0 0 0 0 0
0 0 0 0 0 0 0 0 0 0 0 0 0 0 0 0 0 0 0 0 0 0 0 0 0 0 0 0 0 0 0 0 0 0 0 0 0 0 0 0 0 0 0
0 0 0 0 0 0 0 0 0 0 0 0 0 0 0 0 0 0 0 0 0 0 0 0 0 0 0 0 0 0 0 0 0 0 0 0 0 0 0 0 0 0 0
0 0 0 0 0 0 0 0 0 0 0 0 0 0 0 0 0 0 0 0 0 0 0 0 0 0 0 0 0 0 0 0 0 0 0 0 0 0 0 0 0 0 0
0 0 0 0 0 0 0 0 0 0 0 0 0 0 0 0 0 0 0 0 0 0 0 0 0 0 0 0 0 0 0 0 0 0 0 0 0 0 0 0 0 0 0
0 0 0 0 0 0 0 0 0 0 0 0 0 0 0 0 0 0 0 0 0 0 0 0 0 0 0 0 0 0 0 0 0 0 0 0 0 0 0 0 0 0 0
0 0 0 0 0 0 0 0 0 0 0 0 0 0 0 0 0 0 0 0 0 0 0 0 0 0 0 0 0 0 0 0 0 0 0 0 0 0 0 0 0 0 0
0 0 0 0 0 0 0 0 0 0 0 0 0 0 0 0 0 0 0 0 0 0 0 0 0 0 0 0 0 0 0 0 0 0 0 0 0 0 0 0 0 0 0
0 0 0 0 0 0 0 0 0 0 0 0 0 0 0 0 0 0 0 0 0 0 0 0 0 0 0 0 0 0 0 0 0 0 0 0 0 0 0 0 0 0 0
0 0 0 0 0 0 0 0 0 0 0 0 0 0 0 0 0 0 0 0 0 0 0 0 0 0 0 0 0 0 0 0 0 0 0 0 0 0 0 0 0 0 0
0 0 0 0 0 0 0 0 0 0 0 0 0 0 0 0 0 0 0 0 0 0 0 0 0 0 0 0 0 0 0 0 0 0 0 0 0 0 0 0 0 0 0
0 0 0 0 0 0 0 0 0 0 0 0 0 0 0 0 0 0 0 0 0 0 0 0 0 0 0 0 0 0 0 0 0 0 0 0 0 0 0 0 0 0 0
0 0 0 0 0 0 0 0 0 0 0 0 0 0 0 0 0 0 0 0 0 0 0 0 0 0 0 0 0 0 0 0 0 0 0 0 0 0 0 0 0 0 0
0 0 0 0 0 0 0 0 0 0 0 0 0 0 0 0 0 0 0 0 0 0 0 0 0 0 0 0 0 0 0 0 0 0 0 0 0 0 0 0 0 0 0
0 0 0 0 0 0 0 0 0 0 0 0 0 0 0 0 0 0 0 0 0 0 0 0 0 0 0 0 0 0 0 0 0 0 0 0 0 0 0 0 0 0 0
0 0 0 0 0 0 0 0 0 0 0 0 0 0 0 0 0 0 0 0 0 0 0 0 0 0 0 0 0 0 0 0 0 0 0 0 0 0 0 0 0 0 0
0 0 0 0 0 0 0 0 0 0 0 0 0 0 0 0 0 0 0 0 0 0 0 0 0 0 0 0 0 0 0 0 0 0 0 0 0 0 0 0 0 0 0
0 0 0 0 0 0 0 0 0 0 0 0 0 0 0 0 0 0 0 0 0 0 0 0 0 0 0 0 0 0 0 0 0 0 0 0 0 0 0 0 0 0 0
0 0 0 0 0 0 0 0 0 0 0 0 0 0 0 0 0 0 0 0 0 0 0 0 0 0 0 0 0 0 0 0 0 0 0 0 0 0 0 0 0 0 0
0 0 0 0 0 0 0 0 0 0 0 0 0 0 0 0 0 0 0 0 0 0 0 0 0 0 0 0 0 0 0 0 0 0 0 0 0 0 0 0 0 0 0
0 0 0 0 0 0 0 0 0 0 0 0 0 0 0 0 0 0 0 0 0 0 0 0 0 0 0 0 0 0 0 0 0 0 0 0 0 0 0 0 0 0 0
0 0 0 0 0 0 0 0 0 0 0 0 0 0 0 0 0 0 0 0 0 0 0 0 0 0 0 0 0 0 0 0 0 0 0 0 0 0 0 0 0 0 0
0 0 0 0 0 0 0 0 0 0 0 0 0 0 0 0 0 0 0 0 0 0 0 0 0 0 0 0 0 0 0 0 0 0 0 0 0 0 0 0 0 0 0
0 0 0 0 0 0 0 0 0 0 0 0 0 0 0 0 0 0 0 0 0 0 0 0 0 0 0 0 0 0 0 0 0 0 0 0 0 0 0 0 0 0 0
0 0 0 0 0 0 0 0 0 0 0 0 0 0 0 0 0 0 0 0 0 0 0 0 0 0 0 0 0 0 0 0 0 0 0 0 0 0 0 0 0 0 0
0 0 0 0 0 0 0 0 0 0 0 0 0 0 0 0 0 0 0 0 0 0 0 0 0 0 0 0 0 0 0 0 0 0 0 0 0 0 0 0 0 0 0
Wind_Speed
15 15 15 14 14 13 12 13 12 11 12 13 14 13 13 13 13 12 11 13 12 10 9 10 9 8 6 5 4 4 3 2 3 3 2 3 5 6 5 5 6 7 7
14 14 15 14 14 14 14 13 13 12 12 13 13 13 13 14 14 14 14 14 14 13 12 11 10 8 8 6 5 5 4 4 3 4 3 4 6 5 6 7 6 6 7
14 15 15 16 16 16 15 13 13 13 13 12 13 14 14 14 14 13 14 14 13 13 13 13 12 11 10 7 7 6 5 4 3 3 4 3 4 4 6 7 8 7 7
14 16 17 17 17 16 15 14 14 14 14 14 14 14 13 13 13 12 12 13 12 11 11 11 12 12 11 10 8 7 6 5 5 4 4 4 5 5 5 6 6 6 7
15 17 18 16 15 14 14 13 13 13 13 14 13 12 11 11 12 14 13 13 13 12 10 10 10 11 11 10 7 8 8 6 6 5 5 5 5 4 5 4 6 8 9
16 17 15 13 13 13 13 12 13 13 12 12 13 13 13 11 18 22 16 13 12 13 12 10 9 9 12 14 13 12 11 9 8 6 6 7 8 7 6 6 7 7 8
14 12 11 12 13 13 12 13 14 14 13 13 14 14 14 16 23 24 19 13 13 12 12 11 8 8 9 9 12 14 14 16 14 8 9 10 9 7 7 8 8 9 10
12 11 11 13 13 12 13 14 14 12 13 13 13 14 13 14 23 24 20 12 11 11 11 11 10 10 10 10 9 9 11 12 14 12 11 11 9 8 7 9 10 11 11
12 12 12 12 12 13 13 14 12 11 11 11 11 12 12 12 21 23 21 9 9 10 9 9 10 10 14 16 10 10 11 11 14 18 18 16 16 15 11 7 8 8 10
11 10 10 10 10 12 12 11 9 8 9 8 8 9 9 9 18 23 22 9 9 8 8 8 11 13 14 17 12 11 12 11 8 8 12 14 14 13 15 11 9 9 9
5 6 7 8 9 9 8 7 7 7 7 7 7 6 7 8 15 22 23 10 10 9 8 8 9 17 18 19 17 12 14 10 7 8 8 8 8 7 8 8 8 8 9
5 6 6 7 7 6 8 7 8 8 8 8 7 7 6 7 10 18 23 18 13 9 9 8 9 16 18 20 16 16 18 13 7 7 8 8 7 7 6 7 8 8 9
6 6 6 6 6 7 8 8 8 8 7 7 7 7 7 7 10 19 21 22 20 11 8 11 13 16 16 14 17 17 12 8 8 8 8 8 6 5 4 4 6 7 8
7 6 6 7 7 6 6 6 7 7 7 7 7 7 7 7 8 9 10 11 15 13 9 9 13 15 13 10 7 9 7 6 7 7 7 5 3 3 4 4 4 4 5
7 6 6 6 6 6 5 4 6 5 6 6 6 6 7 7 10 14 10 9 8 8 6 4 5 6 7 6 5 5 4 4 5 5 5 4 3 4 4 3 4 4 5
6 6 5 5 5 5 5 4 4 4 5 7 6 6 4 6 9 14 16 15 14 12 7 6 7 7 7 6 6 5 4 4 4 4 4 4 4 4 4 3 4 5 6
5 5 4 4 4 4 4 4 4 4 4 3 4 5 5 6 8 10 12 12 12 12 8 6 6 6 5 5 5 4 4 3 2 3 4 4 4 4 4 4 4 4 5
6 5 4 4 4 4 4 3 3 4 3 2 3 4 3 4 5 5 7 7 6 6 5 5 4 4 4 4 4 3 3 3 3 3 3 3 3 4 4 4 4 5 5
5 4 4 4 4 4 3 3 3 3 3 3 2 3 5 4 4 4 3 2 3 3 3 2 3 3 3 3 3 3 3 3 3 3 3 3 3 4 4 4 4 4 5
6 7 5 4 4 4 3 3 3 3 3 2 2 2 1 1 1 2 2 1 1 2 2 2 2 3 3 3 3 3 3 3 3 3 3 3 3 3 4 4 4 4 4
5 6 7 5 4 4 3 3 3 2 2 2 2 1 1 1 1 2 1 1 1 1 2 2 2 3 3 3 3 3 4 3 3 3 3 3 3 3 3 3 3 4 4
5 5 5 5 4 4 4 4 3 3 3 2 2 1 2 2 1 1 1 1 1 1 1 1 2 2 3 3 3 4 4 4 4 4 4 3 3 3 3 3 3 4 4
5 6 6 5 5 5 4 4 3 3 2 2 1 1 1 1 0 1 1 1 1 1 1 2 2 2 3 3 3 4 5 5 4 4 4 4 4 4 4 4 5 5 5
6 6 5 5 4 4 3 3 2 2 1 1 0 0 0 1 1 2 2 2 2 2 2 3 3 5 5 4 4 4 4 4 4 4 6 5 5 4 4 4 5 6 5
5 5 5 4 3 3 2 2 2 1 1 1 1 1 2 2 2 3 3 3 4 4 5 5 4 5 7 8 7 6 7 8 7 5 5 6 6 6 6 6 5 5 5
4 4 3 3 2 2 1 1 1 1 2 2 2 3 3 3 4 4 4 4 4 5 5 5 7 8 8 8 10 11 11 11 11 10 7 6 7 7 7 6 7 6 6
Wind_Direction
209 209 210 210 208 205 202 201 195 188 182 183 182 178 175 174 174 173 169 166 165 160 158 156 151 148 144 141 139 140 147 163 176 164 189 204 232 243 246 259 276 283 284
208 208 210 209 206 206 206 201 194 189 187 186 182 180 179 176 176 175 169 170 168 166 164 160 156 154 154 153 155 161 167 178 192 196 201 218 236 251 266 273 274 273 275
207 208 210 209 207 208 206 199 194 190 187 186 186 186 183 180 179 178 172 172 173 170 168 168 164 163 166 167 169 171 172 177 196 208 221 230 246 250 271 271 269 269 270
206 209 212 211 208 207 204 198 195 191 189 189 191 191 186 181 178 174 171 171 170 169 171 171 170 175 175 173 175 180 175 181 193 215 233 243 251 252 260 272 277 274 278
207 212 215 212 208 205 202 197 194 193 193 191 190 190 185 182 181 176 173 171 168 168 171 176 178 181 181 177 175 180 179 189 195 214 230 244 248 244 248 260 277 289 286
211 216 214 207 202 200 197 192 191 194 193 190 192 189 189 191 188 183 175 172 171 172 175 178 179 180 188 193 198 196 195 196 202 211 225 236 249 251 254 259 273 287 289
214 214 205 200 200 200 194 192 195 196 193 194 196 193 195 197 190 187 179 172 175 178 177 176 177 185 186 195 207 213 218 224 220 219 236 242 253 252 256 260 261 267 272
212 211 203 200 201 197 195 198 198 195 195 198 198 197 196 198 192 187 178 176 178 181 180 180 181 184 192 192 198 213 224 228 229 230 240 250 255 259 253 262 272 277 278
212 211 204 199 196 194 198 200 197 194 197 199 195 194 195 194 192 185 177 176 180 182 182 183 187 191 199 197 201 218 231 240 243 240 245 253 258 258 256 259 261 265 276
213 209 199 192 191 194 197 194 190 190 194 191 191 191 189 187 190 186 180 178 182 181 182 192 199 200 203 202 208 218 232 238 232 242 249 255 257 257 252 247 252 258 271
189 177 178 183 185 185 180 176 170 175 176 178 178 177 180 182 193 192 188 184 186 185 190 198 205 211 214 216 219 224 235 238 233 237 246 249 247 246 244 242 242 248 258
147 155 161 165 168 163 162 164 168 172 174 175 173 173 175 178 191 199 198 198 193 195 201 201 205 210 219 227 228 232 238 238 235 236 241 245 244 243 240 239 241 245 253
129 135 141 143 146 152 159 162 166 172 177 178 179 184 183 184 197 203 205 206 207 206 208 210 211 216 222 230 234 236 235 230 232 236 242 248 249 249 242 237 239 247 258
124 127 132 137 142 146 152 160 168 174 178 180 185 190 186 187 193 196 201 207 213 217 217 212 217 224 226 222 224 231 228 229 233 240 248 253 249 234 229 230 239 242 255
120 125 130 132 139 145 148 160 172 176 183 184 190 191 190 195 200 196 191 198 200 205 196 201 208 211 215 215 211 210 214 218 228 236 244 246 239 235 237 231 236 239 251
123 127 129 133 134 138 137 125 128 138 169 185 185 186 195 201 192 198 204 206 205 201 199 214 217 217 218 217 216 210 207 214 221 227 234 238 242 243 247 239 233 240 256
118 121 121 124 130 135 140 144 137 116 114 132 169 184 186 181 187 194 199 202 205 205 214 214 214 213 212 211 212 213 211 200 202 223 236 242 248 249 248 244 239 246 258
97 96 105 113 121 129 136 140 144 152 145 108 68 74 114 143 155 169 182 187 199 205 212 210 204 197 195 196 196 200 200 198 206 221 229 233 237 243 245 247 245 250 261
82 86 87 94 98 104 110 116 122 130 131 123 104 72 58 88 103 109 144 186 191 191 187 184 182 179 179 181 185 191 198 204 206 212 222 224 226 234 240 243 248 249 255
67 68 75 86 89 91 96 106 112 119 126 134 132 101 55 90 132 91 65 106 155 169 169 165 161 167 170 177 183 188 197 204 204 211 220 223 224 230 235 236 241 247 249
67 66 63 71 71 75 80 86 93 106 115 116 93 66 134 128 138 122 113 108 124 146 160 166 169 174 178 181 187 196 205 212 210 212 217 218 216 222 230 235 238 241 253
65 65 62 65 66 65 65 67 73 81 95 102 90 57 78 80 97 122 134 128 116 120 157 183 191 191 192 196 199 205 209 214 211 208 213 211 212 219 222 227 234 241 242
67 72 70 64 64 69 67 64 68 75 82 87 91 78 63 81 123 194 200 198 197 205 204 213 216 211 207 212 220 220 222 222 216 207 209 212 213 216 216 222 224 233 238
62 67 70 67 63 62 63 62 61 66 72 81 93 240 253 241 242 241 238 231 231 229 224 224 231 232 228 225 225 226 231 234 224 214 214 218 219 218 217 221 228 231 237
58 60 61 59 58 56 55 52 46 38 12 295 277 267 263 256 250 247 241 237 238 239 237 234 233 235 235 234 234 233 236 237 230 214 207 215 222 221 221 224 225 226 228
56 58 57 53 48 40 25 359 329 303 287 279 271 266 262 258 256 254 248 241 240 241 242 238 236 236 238 238 238 237 235 236 230 220 213 214 217 219 215 220 222 225 228